Theta_e
356 355 355 356 356 354 352 351 353 352 350 350 352 354 353 352 355 355 354 354 352 349 348 349 353 356 352 345 348 356 355 351 341 331 340 348 336 324 327 331 333 337 338 339 344 348 349 345 340 336 333 333 335 336 333 327 324 323 323 322 323 322 323 324 324 323 322 322 321 320 320 320 320 322
357 356 356 357 357 357 354 351 353 353 350 349 352 354 352 349 352 356 357 356 354 352 349 346 349 352 352 350 351 353 353 350 344 333 334 340 332 323 327 331 332 335 338 337 339 345 349 348 345 342 339 339 340 339 335 329 325 323 322 322 323 322 323 324 324 323 323 322 321 320 319 320 320 321
356 357 357 357 357 357 355 352 353 353 352 353 353 354 353 348 348 352 355 355 354 353 351 350 350 351 352 353 350 348 348 352 347 336 334 333 328 328 331 332 335 336 337 336 335 340 345 347 348 347 346 346 346 343 339 332 327 324 324 323 322 323 323 324 324 323 322 322 321 320 319 320 320 322
357 356 355 354 354 356 357 355 354 352 352 352 352 354 353 351 349 349 348 350 353 353 353 353 352 352 352 352 352 348 345 351 350 340 337 334 334 340 339 337 341 340 337 335 334 336 339 343 347 348 350 350 349 348 344 338 331 325 323 323 323 323 323 324 324 324 323 321 321 320 319 320 321 322
358 356 352 350 350 352 354 354 353 352 351 351 350 351 352 352 353 353 349 348 352 352 352 353 352 353 352 351 354 351 344 348 347 338 334 338 344 350 346 343 344 343 339 334 330 332 334 338 343 346 349 351 351 351 349 344 337 329 325 323 323 324 323 324 325 324 323 321 320 320 319 320 321 322
353 354 351 346 348 350 350 351 351 351 351 350 350 351 351 352 353 355 353 349 350 351 351 352 352 352 354 355 355 350 341 338 336 333 335 343 351 351 346 348 351 349 344 334 328 330 331 333 338 342 347 350 351 352 351 349 344 335 327 324 323 324 324 324 325 324 323 322 320 321 319 320 321 322
349 352 351 349 350 351 351 351 350 350 350 349 349 350 350 351 351 352 354 352 349 348 347 346 349 352 354 353 349 343 338 336 335 338 340 342 349 348 343 349 356 355 349 338 330 330 330 330 334 336 341 346 349 351 352 351 349 341 332 325 324 324 324 324 325 324 323 322 321 321 320 319 321 322
350 352 352 352 352 352 352 353 352 351 350 350 350 350 350 350 350 349 352 352 348 344 340 338 342 344 342 339 337 340 342 341 340 343 341 338 342 343 338 346 356 354 347 342 337 334 331 330 332 332 334 339 345 349 350 351 351 347 338 329 325 324 324 324 325 324 323 322 321 321 320 319 320 323
348 350 352 352 353 353 352 353 352 351 351 351 351 351 351 352 352 353 354 353 349 344 340 337 337 338 338 338 341 344 343 340 342 347 348 345 345 343 339 345 354 351 345 347 346 341 337 333 331 330 331 334 338 344 347 349 351 350 344 334 326 325 324 324 325 324 323 322 321 321 320 319 320 322
342 343 345 347 348 351 351 352 352 351 351 352 352 352 352 352 353 354 356 354 351 346 341 337 340 344 348 351 353 353 349 342 337 336 339 343 350 354 351 347 347 349 350 352 345 343 348 344 334 330 330 331 333 338 343 347 349 351 348 338 328 325 325 324 325 324 324 322 321 320 320 319 319 322
343 343 343 343 343 344 346 347 350 351 351 351 351 352 352 353 352 353 354 354 354 354 352 351 352 353 354 355 354 355 353 347 341 337 342 349 354 357 355 348 344 346 350 350 344 345 353 349 339 337 335 333 332 333 339 345 346 349 350 342 331 325 325 325 325 325 323 322 322 320 320 320 319 321
345 345 345 345 345 345 344 343 344 347 351 352 353 353 352 354 354 353 353 354 355 356 356 356 355 353 352 351 350 351 353 353 353 352 354 358 358 355 354 353 354 351 347 349 351 352 354 349 345 348 345 341 337 331 335 341 342 347 350 345 334 326 325 325 325 325 324 322 322 320 320 320 319 321
345 344 343 343 343 343 344 344 341 340 342 344 347 352 354 354 353 350 348 350 352 354 354 354 354 352 351 351 350 353 355 356 357 357 356 357 357 356 356 355 354 353 353 354 354 354 354 351 351 352 351 348 345 334 333 338 339 345 350 347 337 328 325 326 325 324 324 323 322 321 320 320 319 320
344 344 343 342 340 340 341 342 337 331 329 330 330 336 341 344 344 341 340 343 349 354 355 354 354 353 352 351 350 350 350 349 350 351 353 355 356 356 357 355 350 351 356 356 351 348 346 345 351 354 353 353 349 338 333 338 340 345 350 348 341 330 325 325 325 324 324 323 322 321 320 320 319 319
339 341 342 341 341 340 341 340 335 327 325 326 325 325 327 329 330 333 335 337 343 351 355 355 355 354 352 351 350 349 347 345 345 346 351 354 356 355 356 356 354 353 354 353 348 341 334 336 347 350 350 353 352 343 339 341 342 344 348 349 344 334 327 325 325 324 324 323 322 321 320 320 319 319
340 340 340 340 340 339 341 341 338 332 326 325 325 325 325 325 325 327 329 331 334 340 347 351 352 352 353 353 352 351 350 349 346 346 345 347 351 353 355 356 355 353 353 353 349 341 337 343 350 347 347 353 354 348 344 345 343 341 345 349 346 336 327 325 325 325 324 322 322 321 321 320 320 319
345 344 342 342 340 339 339 340 343 341 333 326 325 325 325 325 324 325 325 326 328 330 334 339 340 341 343 344 343 343 345 346 345 342 337 337 344 350 352 353 352 348 345 346 349 349 348 351 353 351 351 355 352 348 348 347 343 340 344 349 348 339 329 325 325 325 324 323 322 322 322 321 320 319
348 348 347 345 341 337 335 335 338 341 336 328 325 325 324 325 325 325 325 326 327 328 330 332 333 333 335 335 334 333 335 336 336 335 333 334 341 346 346 345 343 339 334 337 348 352 350 351 353 351 352 353 350 348 348 345 341 340 344 349 350 344 332 325 325 325 323 323 322 322 322 321 321 320
341 344 347 348 343 336 332 330 330 332 331 328 325 324 325 324 324 325 325 325 326 328 329 331 332 333 334 334 334 334 334 335 336 338 338 338 339 340 338 337 335 335 337 342 349 350 347 349 351 349 349 351 350 348 347 344 340 342 345 347 350 348 337 326 324 324 323 323 323 322 322 322 321 320
331 333 336 339 338 335 332 329 326 326 326 327 327 327 326 326 327 330 331 331 329 329 331 332 333 334 334 335 335 335 336 339 343 345 347 348 347 345 344 343 342 344 346 345 347 349 349 350 351 349 349 351 350 349 347 345 343 344 346 347 350 351 342 328 324 324 323 322 323 322 322 322 321 321
327 328 328 329 329 329 329 327 325 325 325 325 326 329 328 329 333 338 342 344 341 338 337 338 338 339 340 340 340 338 338 339 340 343 344 345 346 347 348 349 350 350 349 346 344 346 348 350 351 351 351 350 351 351 349 347 346 346 346 347 349 351 345 331 324 324 323 322 322 322 322 322 321 321
329 327 326 326 326 326 326 326 326 326 326 326 326 328 329 329 331 334 340 345 348 347 346 346 346 347 347 346 346 345 344 341 339 340 340 339 342 346 347 348 348 348 348 347 346 345 345 347 349 351 350 351 351 352 351 349 347 348 348 347 348 350 346 333 324 324 323 322 322 322 322 322 322 321
338 334 332 330 329 329 329 329 331 331 331 332 332 331 333 334 333 332 337 344 348 351 351 351 351 351 351 351 350 347 346 344 343 342 341 339 341 345 346 347 347 347 347 346 345 346 347 349 350 350 350 351 351 352 351 350 349 349 349 347 347 349 346 335 325 324 323 322 322 322 322 322 322 322
348 346 343 340 337 336 336 337 339 340 341 341 340 340 341 340 338 338 342 345 348 351 352 351 351 352 351 350 350 348 344 342 341 342 342 342 342 342 345 348 349 348 347 345 344 347 348 349 349 350 349 350 351 351 351 351 349 349 349 347 345 347 345 336 326 323 323 323 322 322 322 322 321 321
352 351 351 350 348 346 345 347 348 349 350 350 349 348 346 343 342 344 345 346 348 352 354 352 351 352 352 351 351 351 348 346 344 343 343 343 342 342 342 345 348 349 348 346 346 346 347 347 349 350 350 350 351 351 351 351 350 349 349 347 345 345 344 337 330 326 323 322 322 322 322 322 322 321
353 353 354 354 354 354 353 353 354 355 354 354 353 351 348 347 345 346 345 344 345 348 353 355 354 353 353 353 353 353 353 352 351 351 349 346 345 345 344 343 347 347 347 347 347 347 348 348 348 349 349 349 350 351 351 351 351 349 348 346 344 345 343 338 332 328 325 323 322 322 322 322 322 321
354 355 355 356 356 356 356 356 356 356 356 356 355 353 351 350 349 347 346 344 342 341 344 348 350 350 351 353 354 354 354 353 351 351 351 348 346 347 345 343 344 344 345 348 349 348 348 348 346 346 347 347 348 351 351 350 350 349 347 346 345 345 344 339 331 327 325 324 323 322 322 322 322 322
355 356 357 357 357 357 357 356 357 357 357 357 357 356 355 353 351 349 347 345 343 340 339 341 343 344 346 348 350 352 354 353 351 349 350 348 347 346 346 345 344 343 343 344 347 348 348 347 346 345 345 345 346 349 350 349 349 348 347 346 345 344 345 343 335 327 324 324 323 323 322 322 322 322
356 356 357 356 356 357 356 357 356 357 357 357 358 357 357 355 353 351 349 346 343 341 340 339 340 342 343 343 345 346 350 352 352 351 349 348 347 347 348 348 348 347 345 342 343 345 347 346 346 344 345 346 346 347 348 347 349 349 347 346 344 342 344 344 339 331 326 324 323 324 323 322 322 322
356 356 356 356 356 356 356 356 356 356 357 358 358 359 358 357 355 353 350 348 345 343 342 341 341 342 343 345 346 348 350 350 350 349 349 348 347 343 343 346 347 348 348 345 344 345 345 346 345 345 345 347 347 347 346 346 349 350 348 346 344 341 342 344 342 337 330 324 323 324 323 323 322 322
357 357 356 356 356 356 356 357 356 357 357 357 358 359 358 358 356 353 351 348 346 344 343 342 342 343 346 349 351 353 353 352 351 349 348 348 347 343 343 348 349 347 346 346 346 345 345 345 344 343 343 346 347 347 346 347 350 351 348 345 343 341 341 343 343 341 335 327 323 323 323 323 323 323
357 357 357 356 356 356 356 356 356 356 357 357 358 359 359 358 358 355 353 350 348 346 345 344 344 345 347 350 353 355 356 355 354 352 350 349 348 346 347 351 351 351 351 350 349 348 347 345 344 343 343 344 346 347 348 350 352 351 347 344 343 342 342 342 342 343 338 329 323 323 324 323 323 323
354 354 354 356 357 356 356 355 356 356 357 357 358 359 359 359 359 358 356 352 350 347 346 345 344 345 347 350 352 355 355 354 353 354 353 353 352 351 350 351 350 352 354 354 354 353 351 348 345 344 345 346 346 346 349 352 353 350 346 344 343 343 344 341 340 341 339 331 325 323 323 323 323 324
355 356 355 356 357 356 355 355 355 355 356 358 358 359 359 359 359 358 357 354 352 350 348 346 345 345 346 349 352 355 356 355 354 354 354 355 355 353 354 354 352 351 353 354 355 355 355 353 350 348 348 349 348 346 346 350 351 349 346 344 343 344 345 342 339 339 339 334 327 324 325 325 324 323
356 357 356 357 358 358 356 355 354 353 354 355 357 359 360 359 359 358 357 356 355 354 353 351 348 346 346 347 350 354 356 355 355 356 356 356 356 355 355 356 354 353 354 355 355 355 355 355 354 352 351 351 350 347 346 346 348 348 346 345 344 343 342 340 338 337 337 334 328 324 327 330 330 327
355 355 356 357 358 358 358 356 355 354 353 352 354 357 360 359 358 358 357 357 357 356 356 356 354 352 350 348 349 352 353 353 354 356 356 356 357 356 355 356 356 355 355 355 355 355 355 355 354 354 353 352 350 350 349 346 346 347 347 346 346 344 342 338 336 333 334 333 328 324 325 330 333 333
355 355 355 357 357 358 358 359 357 356 355 353 354 356 358 360 359 358 358 358 358 358 357 358 357 356 356 354 353 354 354 354 355 356 355 355 356 357 357 356 357 356 356 355 355 354 354 354 355 354 353 352 352 351 351 349 347 346 347 347 347 345 342 338 335 332 333 333 330 326 323 325 330 333
356 356 356 356 355 355 357 359 359 358 357 357 357 357 359 360 360 359 359 359 359 359 358 358 358 358 358 358 358 357 357 357 357 357 356 356 357 358 357 357 358 358 357 356 357 355 352 352 354 355 354 353 353 352 352 350 349 347 347 347 346 344 341 339 335 333 334 334 331 328 324 323 327 331
353 354 354 353 352 353 355 358 359 359 359 360 359 360 360 360 360 360 360 360 360 360 360 360 360 360 359 359 359 359 359 359 358 358 358 358 358 358 358 357 358 359 357 355 357 356 353 352 354 355 354 354 353 353 353 352 351 350 348 347 346 344 342 340 337 334 334 334 332 329 327 326 327 329
345 347 347 347 349 352 354 357 358 360 360 360 361 361 361 361 361 361 361 360 361 360 361 361 361 361 361 360 360 359 358 358 357 357 358 358 357 358 358 358 359 358 356 354 356 356 354 353 354 355 354 354 354 354 354 353 352 352 350 348 347 346 345 344 340 336 335 334 331 329 329 329 329 329
345 346 347 348 350 351 352 353 356 359 360 361 361 361 361 361 361 361 361 361 361 361 360 361 362 362 362 361 359 358 357 357 357 357 357 357 357 357 358 358 358 358 356 354 355 355 353 352 355 355 356 355 354 354 353 352 352 352 351 350 349 348 346 344 341 337 335 334 331 331 331 331 330 330
353 352 352 352 353 352 353 353 354 357 360 361 361 361 361 361 361 361 361 362 361 361 361 360 361 361 361 360 358 357 357 357 357 357 357 357 357 357 357 357 357 356 357 355 354 352 350 351 355 357 357 356 355 354 354 353 352 351 350 350 350 348 345 343 340 337 335 333 332 332 333 332 332 332
359 358 357 356 356 356 356 356 357 358 359 360 360 361 361 361 361 361 362 361 361 361 361 361 361 360 359 357 357 356 356 356 357 358 357 357 356 356 357 357 356 356 356 356 354 351 351 352 355 358 357 356 356 355 355 354 352 349 348 348 348 347 345 342 337 335 334 333 331 331 333 333 333 333
359 360 360 360 360 359 359 359 359 360 359 360 360 361 362 362 361 361 361 362 362 361 361 362 361 360 358 356 356 355 355 356 357 358 358 357 356 356 355 355 355 355 355 355 354 353 353 354 355 356 357 357 356 356 355 353 351 348 347 347 346 345 344 341 336 333 333 333 330 329 332 333 332 332
357 359 361 361 361 361 360 360 360 360 360 361 361 361 362 362 362 362 362 362 362 361 361 360 359 359 359 358 356 356 356 356 357 358 359 358 358 358 356 355 355 355 354 354 355 354 355 355 356 356 356 356 355 355 355 353 351 349 348 348 346 344 342 340 337 333 333 332 330 328 329 331 331 331
Wind_Speed
3 3 4 3 3 3 4 3 3 4 4 2 1 1 1 1 1 3 3 3 3 3 3 5 6 9 15 14 9 7 8 11 16 16 11 11 17 20 19 18 17 17 20 20 19 19 18 17 17 18 19 19 20 22 23 23 22 21 20 19 20 21 22 23 23 21 21 21 22 22 22 19 17 15
4 4 4 4 3 3 4 3 3 5 6 3 1 2 3 3 1 2 4 4 4 4 3 4 7 11 13 11 8 7 9 13 16 16 13 13 17 20 19 18 18 18 20 21 21 19 18 18 18 18 18 19 20 22 23 24 24 22 21 20 21 22 23 25 24 22 21 22 23 23 23 21 18 16
5 6 5 5 4 4 4 4 4 5 5 4 3 4 5 4 3 3 4 5 5 5 5 6 7 9 9 9 10 9 9 12 17 18 16 16 19 21 21 20 19 19 20 21 22 20 19 19 19 18 18 18 19 21 22 24 25 24 22 22 22 24 25 26 25 24 22 22 23 23 24 22 19 16
6 6 6 6 6 5 5 5 4 5 6 5 4 5 5 6 5 5 5 6 7 6 6 8 8 7 8 10 11 12 10 10 16 18 16 17 18 18 20 21 19 18 20 22 22 21 21 20 19 19 18 18 19 20 21 24 25 25 24 23 23 24 25 26 26 24 23 23 23 23 24 23 20 16
7 8 8 7 7 6 6 6 5 5 6 6 5 5 6 6 6 7 7 8 9 9 7 7 7 8 9 9 10 13 12 9 13 16 15 15 15 13 16 20 20 18 19 22 23 22 22 21 19 19 19 19 19 20 21 23 25 26 25 24 24 25 26 27 26 25 24 23 23 23 24 24 21 16
9 9 9 8 7 7 8 8 7 6 7 7 7 7 7 6 7 8 9 10 10 10 9 8 8 8 9 8 9 13 14 13 15 16 14 12 11 11 13 17 20 20 20 22 22 22 22 21 20 19 19 18 19 20 21 22 24 25 26 25 24 25 26 27 27 26 24 23 23 22 24 24 22 17
9 10 10 9 8 8 8 9 8 7 8 8 8 8 8 8 8 8 10 12 12 12 11 10 9 8 9 10 12 14 15 15 15 15 15 12 10 12 11 13 20 22 22 23 21 20 21 21 21 20 19 19 19 20 21 22 23 25 25 25 25 25 27 27 27 26 24 23 23 22 23 24 23 18
11 11 11 10 10 10 10 11 10 9 9 9 9 9 10 10 10 10 10 12 13 14 14 13 12 11 13 13 14 14 13 14 14 14 16 15 13 15 12 10 17 21 22 22 21 20 20 20 22 21 20 20 19 20 21 22 23 23 24 25 25 26 27 27 27 26 25 23 22 22 22 24 23 19
13 12 12 12 11 11 12 11 11 10 10 10 10 10 10 10 10 10 11 12 13 14 15 15 15 15 15 14 13 14 14 14 13 12 15 16 16 18 16 10 14 20 21 21 21 21 20 20 23 22 22 22 20 20 21 22 22 22 23 24 25 26 26 27 27 26 25 24 22 21 21 22 23 20
13 13 13 13 13 13 13 12 12 12 12 11 11 11 11 11 11 11 12 13 14 15 16 16 16 15 14 13 13 13 14 15 15 15 15 14 13 15 16 14 14 17 19 21 23 22 20 21 22 22 22 23 21 19 21 21 21 22 23 24 24 25 26 26 26 26 25 23 22 21 20 21 22 20
14 13 14 14 14 14 14 14 13 13 13 13 13 13 13 13 13 13 12 13 14 14 15 14 14 13 12 12 12 12 13 16 17 16 14 13 11 12 15 18 16 15 16 20 23 23 22 22 21 21 24 24 22 20 20 21 21 22 22 23 24 24 25 26 26 25 24 23 22 21 20 20 21 19
15 15 15 14 14 15 15 15 14 14 14 14 13 13 13 13 14 14 13 13 13 14 14 14 14 14 13 13 14 13 13 14 14 13 12 12 12 13 14 16 15 15 17 17 17 19 23 25 23 22 23 24 23 22 21 20 21 22 23 23 23 24 24 25 25 25 24 23 22 21 20 19 19 19
17 17 17 16 16 16 16 18 18 17 15 15 15 14 14 14 15 16 16 15 15 15 16 16 15 15 15 15 14 13 12 12 12 12 12 13 14 13 13 14 14 16 17 14 13 14 17 20 22 23 23 23 24 24 21 21 23 23 23 23 23 23 24 24 24 24 23 22 21 20 20 19 19 18
19 19 18 18 18 18 20 22 24 22 19 19 19 18 18 18 19 20 19 18 17 16 16 17 16 15 15 14 13 13 12 12 13 13 13 14 14 13 14 16 16 15 13 14 16 16 15 17 18 18 18 21 24 24 22 24 25 23 23 23 22 23 23 23 23 23 22 22 21 20 19 19 18 17
23 22 21 20 20 21 22 25 26 25 23 22 22 22 22 23 23 23 23 22 21 18 17 17 16 16 16 15 14 14 14 14 13 12 12 13 14 15 15 16 16 14 13 16 19 20 21 20 17 17 17 16 18 21 23 24 25 24 22 22 22 22 22 22 22 22 22 21 20 20 19 18 18 17
26 25 24 23 22 22 23 24 26 26 26 25 25 25 24 24 25 25 25 25 25 23 22 20 19 19 19 18 17 16 14 14 14 15 16 16 16 16 16 16 17 15 15 17 21 24 24 19 17 20 18 13 16 21 24 23 24 25 23 21 21 21 21 21 21 21 21 20 20 19 19 18 17 17
26 27 27 26 25 24 23 23 24 26 28 27 26 26 26 26 26 27 28 27 27 27 27 27 27 26 25 24 24 22 20 20 21 22 24 23 19 17 17 18 19 18 19 21 22 24 22 16 16 19 17 15 19 23 23 22 23 24 22 20 20 20 20 20 20 20 19 19 19 18 18 17 17 16
25 26 27 28 30 30 29 28 27 27 30 32 30 28 28 28 28 28 29 29 29 29 30 31 31 29 29 29 30 29 28 28 28 27 27 25 22 19 19 21 22 23 24 24 22 21 20 16 15 15 16 20 23 23 22 23 22 21 20 19 19 20 20 20 19 18 18 18 17 17 17 17 16 16
31 30 29 29 32 34 34 34 33 32 32 33 33 32 31 31 30 31 31 31 30 30 31 32 32 30 30 31 30 29 29 29 28 27 26 24 23 22 23 24 25 25 23 21 20 21 20 17 14 14 16 21 24 23 24 24 21 18 18 19 19 20 20 19 18 17 17 16 16 16 16 16 16 15
39 39 37 36 37 38 37 37 36 35 34 34 34 34 33 33 31 31 31 31 31 31 31 31 31 31 30 30 30 30 29 27 25 23 21 21 21 22 23 24 24 22 19 17 18 21 21 19 15 13 14 19 24 25 25 24 21 18 18 20 20 20 19 18 18 16 15 15 14 14 15 15 15 14
43 44 44 43 43 43 41 40 39 38 36 36 35 35 35 34 33 30 28 27 29 31 31 30 30 30 29 28 28 28 28 27 26 24 24 24 23 22 22 22 21 19 18 16 15 18 19 17 15 14 13 16 22 25 24 21 19 18 19 20 20 19 18 17 17 15 14 13 13 13 14 14 13 11
43 45 45 45 45 45 44 43 42 40 39 38 38 38 37 37 37 35 30 26 26 27 28 28 28 28 28 27 27 26 25 25 26 27 28 28 26 24 23 22 21 20 19 18 17 18 18 16 15 15 14 15 18 22 22 21 20 20 21 21 20 20 18 17 15 14 13 12 12 12 12 12 12 11
42 44 45 45 46 46 45 44 43 42 41 41 40 39 39 39 39 38 33 28 25 24 25 26 26 26 27 27 27 27 26 24 23 25 27 27 27 27 24 22 22 21 20 18 16 17 17 16 15 14 14 14 15 18 22 23 23 23 22 21 21 20 18 17 15 14 12 11 10 11 11 11 11 11
39 41 43 44 45 45 44 43 42 42 42 41 40 39 39 40 39 36 30 26 24 23 23 25 26 27 27 28 28 29 28 26 25 25 25 26 27 28 27 24 22 22 21 19 16 17 19 18 16 15 14 15 15 18 21 23 23 24 24 23 22 20 17 16 15 14 12 11 10 9 10 9 9 9
37 37 38 40 40 41 41 40 39 38 38 38 38 39 40 41 39 36 31 27 25 23 23 25 26 27 27 28 28 28 28 28 27 25 25 24 24 25 26 25 24 24 22 19 18 20 21 21 20 17 16 17 18 18 20 23 25 26 25 24 23 20 16 15 15 14 13 11 10 8 8 8 8 8
36 36 35 35 34 35 37 37 36 35 34 34 34 37 38 38 38 37 36 33 31 27 25 24 25 25 25 25 25 25 25 25 24 23 23 24 23 22 22 23 24 24 23 21 20 22 22 24 24 22 20 21 19 18 19 22 24 25 24 23 23 21 18 16 15 15 14 12 10 9 8 7 6 6
33 32 31 31 31 32 34 35 35 34 33 32 32 33 33 32 32 33 34 35 35 34 32 30 29 29 28 27 26 25 25 25 23 22 23 24 25 25 24 23 24 25 24 23 24 25 25 26 27 26 25 24 22 20 20 19 20 23 25 25 24 23 21 17 15 15 14 14 12 9 8 7 6 5
29 27 26 27 28 30 31 32 33 33 32 32 31 30 29 28 27 29 31 32 34 36 36 36 37 37 36 34 32 30 28 27 25 24 24 24 24 26 27 26 26 27 26 25 25 27 28 28 28 27 27 26 24 23 22 20 19 21 24 24 25 26 24 19 16 15 14 14 13 10 9 8 7 6
30 28 28 29 29 30 30 31 32 34 34 33 31 30 28 27 27 28 29 31 33 36 38 39 40 40 40 39 37 35 31 29 29 28 27 27 26 26 27 27 28 29 30 29 27 26 27 28 28 26 26 25 25 25 24 23 20 21 24 25 25 26 25 20 18 17 15 14 14 13 11 9 8 7
31 31 31 31 32 32 34 34 35 36 36 35 32 31 29 29 29 30 30 32 34 37 39 40 41 41 40 38 36 33 31 31 32 31 30 29 29 28 29 30 31 32 32 31 29 28 27 28 27 27 26 26 26 27 27 26 22 20 23 26 25 25 25 21 18 18 17 15 15 14 12 11 9 8
30 31 30 31 33 33 34 35 37 37 37 37 36 35 34 34 33 33 33 34 36 39 40 41 42 40 38 34 31 29 29 31 32 31 30 30 29 29 28 29 31 32 32 31 30 30 29 28 28 29 28 27 28 28 27 27 25 21 21 26 27 26 25 24 22 21 19 17 16 15 13 12 11 10
29 31 31 31 33 34 34 35 37 38 39 39 39 39 38 37 36 35 36 37 38 40 40 41 41 40 37 34 32 30 29 30 31 31 29 28 28 28 28 29 31 32 31 30 30 29 29 29 27 27 28 29 28 27 25 25 25 22 21 26 30 28 26 26 26 24 21 18 17 16 15 13 13 12
25 29 30 28 28 31 34 35 36 38 38 40 41 41 39 38 37 36 36 38 41 43 43 42 42 41 39 37 33 31 30 32 33 32 30 28 27 27 28 30 31 31 30 29 28 27 28 30 28 26 27 28 28 28 27 25 24 22 22 27 32 31 28 27 27 26 23 19 17 17 17 15 14 13
23 24 25 24 25 29 32 33 34 36 36 35 34 33 33 33 32 30 30 31 34 38 41 44 44 44 43 40 35 32 31 32 32 32 31 31 30 30 29 28 29 31 30 29 28 26 27 30 30 27 27 28 28 30 32 30 26 22 22 27 32 31 28 28 28 28 26 21 17 18 18 17 16 15
26 24 24 26 26 26 29 32 35 37 38 36 32 27 27 28 28 28 29 28 27 29 33 38 42 44 45 44 40 36 34 33 32 30 29 30 32 32 30 28 29 30 30 30 30 27 26 30 30 28 30 31 29 31 35 35 31 25 23 27 31 30 28 27 27 29 29 24 20 20 18 16 17 17
24 23 25 27 26 23 27 34 37 38 40 40 36 31 29 29 29 29 31 30 28 28 28 31 35 39 42 44 43 40 39 37 35 32 31 31 32 32 32 32 31 30 30 31 31 27 25 28 31 30 30 28 26 28 32 34 32 30 30 32 32 30 29 28 26 28 30 27 23 23 20 17 16 17
29 28 30 32 31 28 26 29 32 34 37 39 37 33 31 30 30 31 32 31 31 31 31 30 31 32 34 36 37 38 39 40 38 36 36 35 34 32 33 34 34 33 32 32 31 29 28 29 32 32 28 23 22 24 27 28 28 29 31 33 33 31 31 29 28 30 31 29 26 25 23 19 17 17
37 36 38 40 39 36 29 25 25 29 31 32 33 31 29 29 30 31 32 32 34 35 35 34 34 33 32 31 30 31 33 35 35 36 36 36 34 33 33 33 33 33 32 30 28 29 29 30 33 34 29 24 24 26 25 25 28 30 28 29 32 32 32 32 33 33 33 31 27 25 23 21 19 19
43 43 44 45 44 40 34 30 28 29 28 28 29 29 29 29 30 30 31 33 34 35 36 35 34 33 33 32 32 31 31 32 32 33 34 34 33 32 33 32 32 33 33 31 28 28 28 29 33 36 34 30 30 30 27 26 30 32 30 27 29 32 35 36 36 36 36 33 28 25 23 22 22 22
45 46 47 47 45 42 37 33 31 30 29 28 29 29 30 31 32 31 32 34 35 36 37 38 37 35 34 33 33 31 30 31 32 32 33 33 32 31 31 32 31 32 34 33 31 29 30 31 32 35 36 36 35 32 28 28 31 33 33 31 29 31 35 38 38 38 37 33 29 26 25 24 25 25
40 42 43 43 43 42 42 40 37 33 30 30 30 30 31 33 34 35 35 35 36 37 38 40 41 40 38 36 33 30 29 31 31 31 31 32 33 32 32 32 32 32 33 34 33 34 34 33 32 32 35 37 36 33 30 32 35 37 39 39 35 33 34 37 39 38 35 31 28 26 26 25 23 23
37 37 37 38 39 40 41 42 41 37 33 32 32 32 33 34 35 36 37 37 37 38 40 42 43 41 39 36 30 27 30 34 34 33 32 31 32 33 32 33 35 35 35 36 39 39 37 35 33 33 34 36 38 38 38 39 39 38 38 39 39 36 33 35 38 39 35 30 27 26 25 24 21 20
34 34 32 31 31 31 32 35 38 37 35 34 33 33 34 35 36 37 37 38 40 40 41 43 42 38 34 31 28 28 32 35 34 34 34 34 33 33 33 33 35 36 35 36 40 42 40 37 35 35 36 38 40 41 42 42 37 31 31 34 38 37 33 33 37 39 36 33 31 28 26 25 24 22
30 30 28 25 25 26 27 28 31 32 33 34 34 34 35 37 39 40 39 40 41 40 40 41 39 33 28 27 28 31 33 33 32 34 35 35 35 35 35 35 37 39 39 39 40 41 39 37 37 37 39 42 44 44 43 39 31 26 28 33 36 36 33 32 36 39 38 36 35 32 29 28 27 24
25 27 26 25 28 31 32 31 30 29 29 30 32 34 36 36 38 39 38 36 36 37 39 40 38 33 29 28 29 30 33 34 34 35 35 36 36 36 36 37 38 40 41 42 42 41 39 36 37 39 41 43 45 45 44 41 35 31 31 33 36 37 35 32 34 39 41 40 38 35 33 32 31 28
Wind_Direction
243 243 248 247 245 240 236 229 232 253 254 218 194 318 288 264 334 337 314 310 310 324 323 303 311 320 326 339 352 340 322 314 329 351 356 339 344 351 357 6 11 11 12 12 15 17 17 18 16 14 11 6 4 2 2 5 7 7 7 6 6 6 7 9 10 9 5 358 356 360 3 4 2 357
232 238 240 242 248 253 246 231 237 266 274 263 227 258 254 241 251 287 287 302 298 304 322 304 311 327 331 336 340 326 311 312 325 342 347 341 341 344 352 3 5 7 7 6 9 11 12 14 15 13 10 4 1 1 1 3 6 7 6 4 4 5 6 8 10 10 7 2 358 1 5 7 7 3
230 235 234 237 240 246 249 238 236 252 262 261 244 251 263 259 250 255 272 289 287 293 306 295 300 317 321 317 314 316 319 314 320 337 344 340 342 343 347 354 358 359 360 0 2 4 5 8 10 8 6 3 360 360 2 3 5 6 4 3 2 3 5 7 10 11 8 5 1 1 5 7 9 8
236 240 235 236 236 240 248 248 248 253 256 259 248 244 256 261 265 268 269 281 289 294 296 297 304 307 306 309 309 315 328 320 317 330 337 336 342 344 338 341 347 349 351 354 356 357 359 1 4 4 0 360 360 0 3 5 5 6 3 2 1 1 3 7 10 12 10 7 4 2 5 7 9 11
231 241 240 239 238 240 245 246 249 256 261 264 260 255 253 253 261 267 269 275 285 294 297 295 299 297 298 304 302 308 321 314 307 317 327 333 339 336 327 328 333 338 344 348 349 350 353 356 359 0 358 357 358 0 3 5 6 6 4 1 0 360 2 5 10 13 12 9 6 4 5 7 9 12
224 234 241 243 243 246 252 253 251 249 253 256 256 257 255 255 257 260 270 278 279 287 295 291 294 298 298 296 291 299 308 308 308 317 325 331 327 320 322 320 317 325 335 340 344 345 347 351 352 354 356 355 358 0 2 4 5 5 3 0 359 359 1 4 9 13 14 11 9 6 6 7 9 12
230 234 241 243 242 244 249 253 252 246 249 253 253 253 250 250 254 255 266 275 277 282 287 287 292 291 281 281 286 295 304 309 314 317 318 321 311 307 324 317 303 311 322 328 337 342 342 346 348 349 351 353 358 1 1 3 4 3 2 360 358 359 359 2 7 12 15 14 11 8 7 8 9 11
235 235 239 241 240 239 241 245 248 246 247 250 252 254 255 255 258 258 258 265 274 281 287 290 292 288 285 290 296 299 301 305 311 310 310 316 312 308 326 320 294 300 313 320 330 337 337 343 346 346 347 349 355 0 0 1 1 360 359 358 357 358 358 1 5 11 14 15 15 11 8 9 9 11
233 234 236 239 240 241 242 245 247 249 249 250 251 252 256 260 265 265 263 265 272 280 286 291 293 294 297 300 300 299 300 302 306 304 304 311 312 311 321 321 294 301 313 317 323 330 333 340 344 342 344 347 351 357 359 359 358 357 357 357 356 356 357 359 3 9 13 15 16 15 12 11 10 11
238 239 238 240 240 241 243 244 246 249 249 249 251 252 252 254 257 260 264 269 275 280 285 290 293 295 295 294 294 296 299 301 304 303 300 301 302 303 309 311 305 308 314 313 318 326 330 334 337 336 339 343 345 352 356 355 355 355 356 355 355 354 356 358 1 7 12 14 16 17 15 14 12 11
240 243 244 245 246 246 246 245 244 246 250 252 252 253 254 256 257 259 263 268 273 276 281 285 288 289 288 286 288 292 294 297 304 309 307 301 295 291 297 306 311 312 310 309 317 325 323 324 332 334 335 337 338 345 351 350 350 354 355 355 353 353 354 356 359 5 10 12 15 16 17 16 15 13
236 239 241 244 247 251 254 255 251 245 245 251 252 253 255 256 259 261 260 261 263 266 270 274 276 279 279 280 284 288 287 289 297 306 304 294 291 291 296 305 310 310 310 312 314 317 317 323 331 331 329 331 332 338 346 345 346 352 353 353 352 352 353 354 357 3 8 12 15 16 16 17 16 15
236 238 241 243 244 247 253 258 260 256 249 249 251 251 251 251 255 261 261 261 261 261 264 268 271 275 277 279 284 285 283 283 287 291 288 285 291 296 295 297 301 304 307 308 303 302 310 319 323 320 321 324 322 326 338 343 345 351 351 350 351 350 351 353 356 1 7 11 14 15 15 15 16 16
238 239 241 244 245 246 248 251 259 264 262 260 258 257 257 258 259 262 264 264 263 261 263 266 269 272 274 277 280 280 282 286 287 286 286 288 294 297 293 294 301 303 296 293 296 299 305 310 307 303 310 314 311 318 336 342 342 346 345 346 348 347 348 352 354 360 6 10 14 16 14 14 14 15
242 243 243 246 247 248 249 252 260 266 265 262 262 261 262 264 265 266 266 265 263 260 260 263 266 268 271 274 276 278 281 285 286 286 285 285 289 291 292 294 300 302 293 292 299 304 310 312 301 294 299 298 294 309 328 334 334 336 338 341 344 344 346 350 354 359 5 11 15 15 14 14 13 13
245 246 246 247 248 249 252 256 262 266 265 262 261 261 262 264 266 267 267 268 267 265 261 260 260 262 265 268 269 271 274 276 276 277 279 283 285 287 289 290 293 298 297 295 298 303 308 307 293 295 303 284 272 297 317 324 326 328 330 335 341 341 343 348 353 358 4 11 16 16 15 15 14 13
245 247 248 248 248 249 250 252 255 260 265 266 264 262 261 261 263 266 268 271 272 271 268 265 265 267 266 267 270 272 271 271 273 277 283 288 286 282 282 285 289 294 296 294 292 294 300 295 284 293 298 277 278 298 310 315 320 323 325 332 338 340 342 346 352 358 4 11 16 17 17 16 15 15
243 247 249 251 253 254 254 253 251 253 262 269 271 268 264 261 261 263 266 269 271 273 272 271 272 274 273 272 275 278 277 276 278 281 284 286 283 280 281 283 288 293 298 300 294 290 296 296 287 290 284 276 287 301 304 308 316 319 323 332 336 338 340 343 349 357 4 10 15 18 19 18 17 17
244 246 248 250 255 259 259 260 259 257 261 266 270 271 270 267 266 265 267 268 270 272 273 274 276 278 277 275 276 277 277 278 280 283 287 288 286 284 284 285 289 293 298 302 292 286 296 300 289 288 284 279 287 296 298 306 313 315 322 330 333 336 338 339 345 355 3 9 14 18 20 21 20 19
248 249 250 251 255 258 260 262 263 263 263 264 266 268 270 270 270 270 271 273 275 276 276 277 278 278 278 277 276 276 274 273 274 276 279 281 282 284 285 286 289 290 292 294 283 277 289 297 289 286 287 283 287 292 297 305 309 309 317 324 327 332 334 335 341 351 1 7 12 17 21 24 24 21
249 251 252 253 255 257 259 262 264 264 264 263 263 264 266 267 267 267 268 271 277 279 281 282 283 283 283 281 279 277 275 273 272 268 265 267 270 273 275 276 278 280 281 285 280 275 283 293 289 285 284 282 286 291 295 302 305 304 312 318 321 325 329 330 337 346 356 3 9 15 20 23 26 25
250 251 252 253 255 256 258 259 261 263 263 263 263 264 264 265 265 265 265 265 269 274 278 280 282 282 283 283 282 280 278 277 274 269 268 270 268 266 267 269 273 276 276 278 279 277 277 277 277 281 283 281 283 285 289 296 298 300 308 314 314 317 321 325 332 341 349 357 4 13 19 20 20 23
252 252 253 254 254 256 257 258 259 261 262 262 263 264 264 265 265 266 266 264 261 263 269 274 276 275 277 279 281 281 281 278 273 270 271 271 267 263 263 265 269 272 271 273 276 274 269 268 272 278 282 282 281 279 281 287 293 296 303 307 308 310 315 320 327 334 341 348 358 10 18 19 18 20
254 254 256 256 257 257 258 258 259 260 261 262 263 264 264 264 266 266 265 262 260 257 259 265 270 273 276 277 277 279 280 277 272 269 269 269 267 266 264 262 263 266 268 271 272 267 265 269 272 273 275 277 278 280 283 287 292 296 300 304 306 306 308 315 322 325 331 339 349 4 14 16 18 24
255 255 257 259 261 262 263 263 262 261 261 261 262 263 263 264 265 264 261 259 257 255 255 258 261 265 269 271 272 275 277 278 277 275 272 270 268 266 264 261 257 259 265 270 270 268 269 271 270 269 271 272 274 280 284 288 293 297 301 305 308 308 306 309 313 316 322 328 335 351 5 8 12 21
257 257 258 259 261 264 267 268 269 268 267 265 263 263 263 264 265 264 263 261 257 253 253 255 256 258 260 261 262 263 263 266 270 270 273 280 280 274 270 267 260 259 264 267 267 267 268 268 268 269 270 271 273 275 278 284 290 293 295 298 302 304 304 303 305 310 314 315 319 334 347 352 1 11
259 259 260 261 261 263 266 268 270 271 271 271 269 268 266 266 265 264 263 262 259 256 254 252 252 252 253 254 255 254 252 254 257 256 260 271 278 278 277 274 270 267 266 265 264 265 266 266 269 272 272 272 273 271 271 276 281 283 287 290 291 293 295 294 293 298 303 306 311 320 325 330 342 352
258 258 258 260 262 263 265 266 268 269 270 272 272 272 269 267 264 261 258 256 256 256 255 254 254 253 253 253 253 253 252 254 256 254 252 254 261 267 271 273 273 272 271 268 264 263 264 266 269 272 272 272 271 268 268 271 272 275 280 282 282 285 287 286 283 285 289 294 298 301 302 308 318 326
259 257 257 258 259 260 261 263 266 269 272 274 274 271 268 264 260 256 253 252 252 253 253 254 255 257 258 258 257 256 255 255 254 253 252 252 252 253 256 261 264 265 268 271 269 265 265 266 268 270 271 271 268 265 266 267 266 268 273 275 277 280 281 279 279 280 279 281 284 287 290 294 298 302
260 258 258 259 260 261 262 264 267 271 273 274 272 268 263 260 257 254 252 250 249 251 252 254 255 257 259 260 260 258 256 256 256 255 254 254 254 253 253 255 257 259 263 267 268 267 266 266 267 268 268 266 263 263 264 264 259 257 264 269 270 271 273 274 275 276 275 273 273 277 280 282 283 285
261 260 261 261 260 260 261 264 266 268 270 270 269 266 262 259 256 255 253 252 251 251 252 253 255 256 256 257 256 254 253 255 258 259 258 256 256 257 257 257 258 262 265 267 267 267 267 266 265 265 264 261 260 261 262 259 253 247 251 259 261 262 267 271 270 271 272 268 264 268 271 271 270 271
262 260 260 261 262 261 260 260 262 263 264 265 266 266 266 264 261 258 256 254 253 252 252 252 253 253 252 251 250 247 248 252 255 259 261 260 258 258 257 256 258 262 264 265 265 265 265 264 264 263 262 259 258 259 256 252 249 245 244 251 255 255 259 265 266 266 266 262 258 262 265 264 263 263
266 261 257 259 267 269 264 261 259 260 261 263 264 265 265 265 265 263 259 257 254 253 253 252 252 252 251 249 247 245 245 248 251 254 256 257 256 257 257 257 259 259 259 260 261 260 261 263 263 261 260 260 258 254 248 245 244 243 240 245 250 251 251 255 259 261 261 257 256 259 261 260 258 259
267 267 263 263 271 272 268 263 259 257 257 257 259 261 262 264 265 262 258 257 256 256 256 254 252 252 250 248 245 242 241 245 248 250 252 253 254 256 256 257 259 260 258 257 256 255 255 260 262 259 256 258 256 249 244 241 241 242 239 240 247 252 250 247 249 255 258 255 249 250 254 256 258 257
260 266 269 270 271 269 267 264 260 258 256 254 251 250 251 258 262 257 251 250 252 256 258 258 255 253 251 249 246 241 239 242 244 245 247 250 252 254 255 254 255 258 257 256 256 255 252 255 259 256 253 254 254 250 247 245 242 239 237 237 241 247 246 242 240 246 251 251 244 241 241 245 252 255
255 258 264 267 268 267 267 268 266 263 260 258 254 249 245 248 252 252 251 251 249 248 249 252 254 255 253 252 248 244 242 244 243 241 242 244 247 251 254 254 254 255 255 255 256 254 249 251 255 253 250 249 249 251 255 256 250 243 239 240 242 242 240 237 233 236 243 247 244 240 235 228 234 249
254 256 259 263 267 269 268 269 268 266 265 264 260 253 247 246 246 247 250 253 253 251 247 244 246 249 251 250 248 245 244 244 243 242 243 244 244 245 247 250 253 253 253 254 254 251 247 247 250 250 246 241 240 249 260 265 261 253 244 241 241 240 237 233 228 230 239 245 244 243 241 231 225 240
257 258 260 262 266 266 264 262 262 262 263 264 261 253 247 246 246 245 247 250 253 254 252 248 246 245 244 242 241 239 239 240 239 240 243 244 242 241 242 245 247 248 250 251 249 247 248 247 246 246 242 233 235 246 254 255 258 262 256 242 235 235 234 230 227 229 236 242 242 241 243 235 223 228
259 260 261 262 264 262 259 257 257 257 256 255 253 250 246 245 244 244 245 246 247 249 249 248 247 245 242 239 238 237 237 236 237 239 242 242 241 241 241 241 239 242 247 248 244 245 248 245 242 243 240 237 243 252 253 250 255 264 265 251 237 234 234 233 230 229 232 237 236 233 233 232 225 223
258 259 261 262 263 260 257 253 251 252 253 252 250 247 245 244 244 243 245 246 247 248 250 250 249 247 244 241 239 239 241 242 243 244 245 244 243 241 240 240 239 240 245 246 243 243 246 243 241 243 245 248 255 258 253 248 252 256 258 254 246 241 240 239 235 231 231 233 230 223 220 221 223 224
257 257 257 259 260 260 258 255 252 249 248 250 250 248 247 245 244 245 246 247 248 250 251 252 253 252 249 245 243 245 249 250 248 248 246 245 245 243 242 242 242 241 243 244 242 243 247 248 248 250 250 249 251 250 246 246 249 251 254 256 253 247 242 240 237 235 233 231 225 217 215 218 222 228
258 258 258 259 259 260 260 259 257 252 247 246 248 248 248 248 247 247 247 248 249 250 251 252 253 252 250 249 248 248 250 249 247 247 247 246 246 246 245 245 246 246 245 244 243 246 251 253 252 251 249 246 244 243 247 251 253 252 252 254 254 248 240 236 236 237 234 228 220 215 216 219 221 225
255 257 260 262 262 260 259 258 257 254 249 248 250 250 249 249 250 250 249 248 250 252 252 252 253 252 253 255 252 247 246 245 244 245 247 247 247 246 245 247 249 250 248 248 249 251 253 252 249 246 245 245 243 244 249 254 253 248 243 245 250 250 242 232 230 233 232 226 220 217 219 221 220 223
252 251 254 257 257 256 255 255 255 254 251 251 251 249 248 249 252 253 251 250 253 255 256 255 254 254 256 256 249 243 242 244 243 244 246 248 248 247 246 248 250 251 251 253 255 255 252 250 249 247 245 245 245 246 249 251 247 240 237 238 242 246 241 229 222 223 225 225 222 220 220 221 223 225
254 251 251 253 254 254 252 251 253 255 255 254 253 250 248 250 252 253 253 254 257 260 262 262 261 261 260 255 247 243 243 243 243 244 246 247 247 248 250 251 251 251 254 256 256 255 251 248 248 248 247 247 247 249 251 251 247 243 243 241 238 238 238 232 224 221 222 224 224 222 222 223 226 230